Location: Clavering
(51.9667°N, 0.1333°E)
Time: 01:24:04
(UTC+00:00)

Daily predictions for brighter satellites

Satellite Brightness Start Highest point End
(mag) Time Altitude Azimuth Time Altitude Azimuth Time Altitude Azimuth
Cosmos 1461 3.0 00:00:55 10° NW 00:04:58 57° SW 00:06:31 35° S
Cosmos 1553 Rocket 4.0 00:03:21 26° S 00:06:55 72° E 00:13:07 10° NNE
Cosmos 1867 3.9 00:05:01 29° S 00:07:30 49° ESE 00:12:46 10° NE
Cosmos 2221 Rocket 3.6 00:06:47 33° S 00:08:41 69° E 00:13:06 10° NNE
Cosmos 1674 Rocket 4.1 00:06:55 29° SSE 00:08:46 48° E 00:12:56 10° NNE
Cosmos 1238 Rocket 2.0 00:08:32 10° N 00:11:30 84° E 00:12:06 54° SSE
Cosmos 1674 2.6 00:10:51 40° S 00:12:07 76° E 00:15:53 10° NNE
ATLAS CENTAUR R/B 2.7 00:08:40 10° WNW 00:12:51 29° WSW 00:13:59 26° SW
SL-19 R/B 3.9 00:17:33 47° SW 00:18:02 55° WSW 00:20:56 10° NNW
Cosmos 468 4.4 00:16:11 10° NNW 00:21:26 80° WSW 00:24:27 26° SSE
ATLAS 5 CENTAUR R/B 3.4 00:05:50 10° NW 00:21:29 68° SW 00:24:40 22° SSE
CZ-4C R/B 3.1 00:14:40 10° NW 00:21:39 60° SW 00:27:52 18° SSE
Cosmos 2322 Rocket 3.6 00:16:58 10° WSW 00:22:02 34° NW 00:27:09 10° NNE
Cosmos 2333 Rocket 2.4 00:19:42 19° SW 00:23:46 68° NW 00:29:28 10° NNE
Cosmos 1378 Rocket 3.7 00:22:19 31° S 00:24:19 65° E 00:28:44 10° NNE
Cosmos 1844 Rocket 4.4 00:20:55 10° WNW 00:24:24 17° W 00:26:32 14° SW
Cosmos 2322 3.7 00:20:47 24° SSW 00:24:26 86° WNW 00:30:13 10° NNE
USA 215 3.3 00:20:30 10° ENE 00:27:05 87° NNW 00:33:40 10° WSW
PSLV R/B 3.6 00:28:25 10° NNE 00:32:47 77° WNW 00:35:01 29° SSW
NOSS 0 Rocket 4.4 00:29:23 25° S 00:32:50 51° ESE 00:38:50 10° NE
Meteor 2-10 Rocket 4.2 00:31:14 10° N 00:36:54 57° ENE 00:41:17 16° SSE
Cosmos 2151 Rocket 4.1 00:34:48 10° NNW 00:39:02 47° W 00:40:53 29° SSW
Cosmos 1745 Rocket 4.0 00:34:26 10° NNW 00:40:41 76° W 00:44:34 24° S
Cosmos 839 Rocket 4.1 00:35:52 10° NW 00:42:08 74° SW 00:49:11 11° SSE
Okean 2 Rocket 3.9 00:39:05 10° NNW 00:43:18 39° W 00:45:14 26° SW
Okean 2 4.0 00:42:13 27° SW 00:44:07 47° WNW 00:48:06 10° N
ADEOS Rocket 3.9 00:42:18 21° SW 00:45:11 32° W 00:50:32 10° NNW
USA 308 4.0 00:44:46 25° SSE 00:45:22 26° SE 00:48:53 10° E
Cosmos 2219 Rocket 2.6 00:42:56 18° SW 00:47:03 60° NW 00:52:37 10° NNE
Meteor 2-12 Rocket 4.4 00:42:11 10° N 00:48:18 88° W 00:52:26 22° S
Meteor 1-16 Rocket 4.5 00:42:38 10° NNW 00:48:31 63° W 00:52:02 24° S
Cosmos 1707 4.3 00:50:02 17° WSW 00:52:02 26° WNW 00:55:21 10° N
GP-B 3.4 00:51:03 10° N 00:55:29 62° E 00:58:07 23° SSE
CZ-2D R/B 3.4 00:53:43 10° NNE 00:58:29 31° E 01:02:28 13° SSE
Cosmos 1300 2.6 00:55:52 10° NNW 00:59:40 83° W 01:01:27 30° S
Lacrosse 5 3.6 00:58:31 16° SSE 01:00:20 19° SE 01:03:51 10° E
ASTEX 1 4.2 00:57:40 10° N 01:02:14 40° WNW 01:05:07 20° SW
SL-14 R/B 3.2 01:02:27 31° SSW 01:04:13 81° WNW 01:08:07 10° N
USA 267 4.1 01:02:14 22° SSW 01:04:56 29° SW 01:10:30 10° WNW
USA 305 3.4 01:07:08 29° SSW 01:08:38 41° SE 01:12:34 10° ENE
Cosmos 371 Rocket 3.3 01:06:03 26° SSW 01:08:51 87° ESE 01:13:45 10° NNE
USA 229 DEB 4.2 01:01:58 10° NW 01:08:56 48° WSW 01:15:06 15° S
USA 229 4.2 01:02:04 10° NW 01:09:02 48° WSW 01:15:15 15° S
Cosmos 2150 Rocket 3.9 01:06:08 25° SSW 01:09:16 90° E 01:14:28 10° NNE
Cosmos 2237 Rocket 2.3 01:11:28 23° SSW 01:15:06 73° ESE 01:20:49 10° NNE
COSMOS 2428 3.3 01:12:17 16° SW 01:16:46 52° NW 01:22:21 10° NNE
Cosmos 1437 Rocket 3.8 01:14:45 10° NNW 01:18:01 29° W 01:19:16 23° SW
Cosmos 405 Rocket 3.7 01:18:03 22° WSW 01:19:54 36° WNW 01:23:27 10° N
Cosmos 304 Rocket 3.8 01:17:17 24° S 01:20:10 72° ESE 01:25:00 10° NNE
SL-16 R/B 2.9 01:15:36 10° SSE 01:21:45 68° ENE 01:27:58 10° NNW
Okean 1 Rocket 4.0 01:17:59 10° NNW 01:22:00 34° W 01:24:05 22° SW
Lacrosse 5 rocket 3.4 01:21:54 12° SE 01:23:11 13° SE 01:25:09 10° E
Cosmos 1125 Rocket 3.6 01:20:01 22° SW 01:23:26 70° WNW 01:28:39 10° NNE
Cosmos 1953 3.5 01:21:18 10° NNW 01:24:49 29° W 01:26:26 22° SW
Cosmos 2074 Rocket 4.4 01:20:51 10° N 01:27:08 64° ENE 01:33:22 10° SSE
SME Rocket 3.3 01:24:34 21° S 01:27:15 69° WSW 01:32:38 10° NNW
Cosmos 2360 Rocket 4.2 01:23:19 10° W 01:27:41 22° NW 01:32:05 10° NNE
Resurs 1-4 Rocket 2.6 01:22:43 10° NNE 01:27:53 53° E 01:31:56 16° S
Cosmos 2297 4.0 01:25:53 10° NNW 01:31:41 73° ENE 01:37:24 10° SE
Cosmos 1943 Rocket 2.2 01:26:00 10° NNW 01:31:43 87° ENE 01:37:24 10° SSE
USA 290 4.3 01:32:42 12° W 01:34:50 21° NW 01:37:22 10° N
Cosmos 1709 Rocket 4.3 01:29:12 10° NNW 01:35:05 50° W 01:39:17 19° SSW
MOZ.5/SAFIR/RUBIN 5/SL-8 4.2 01:34:00 21° SSW 01:36:52 48° W 01:41:30 10° NNW
Cosmos 1626 4.3 01:36:40 11° WSW 01:38:49 17° WNW 01:41:14 10° NNW
Cosmos 2315 Rocket 4.2 01:35:34 19° SSW 01:40:15 68° WNW 01:46:39 10° N
Cosmos 2184 Rocket 4.1 01:35:44 10° N 01:42:03 77° ENE 01:48:15 10° SSE
Cosmos 2278 Rocket 3.2 01:37:48 10° NW 01:42:31 28° WSW 01:45:23 18° SSW
EO 1 Delta rocket 4.2 01:38:02 10° N 01:42:34 56° WNW 01:46:02 19° SSW
ADEOS II 3.1 01:38:47 10° NNE 01:43:44 40° E 01:48:40 10° SSE
IDEFIX/ARIANE 42P 3.8 01:39:45 10° NNE 01:44:35 35° E 01:49:23 10° SSE
USA 306 2.9 01:47:34 18° SW 01:50:31 65° SSE 01:54:40 10° ENE
Cosmos 1867 4.5 01:45:56 10° WSW 01:51:12 46° NW 01:56:29 10° NE
Cosmos 2084 Rocket 3.6 01:49:15 21° SSW 01:51:29 48° SE 01:55:10 10° NE
Thor Agena Rocket 3.8 01:46:54 10° N 01:52:08 62° WNW 01:56:09 17° SW
USA 307 2.9 01:51:04 18° SW 01:54:00 62° SSE 01:58:10 10° ENE
NPP 3.8 01:50:32 10° NNE 01:55:57 72° ESE 02:00:36 14° S
ERBS 2.1 01:54:54 24° SW 01:56:33 64° SE 01:59:36 10° ENE
Cosmos 2369 Rocket 2.8 01:51:23 10° NNW 01:56:57 61° NE 02:02:29 10° SE
Gblst 52 Del rocket 4.2 01:51:53 10° W 01:57:49 87° S 02:03:20 10° E
USA-17 4.5 01:55:06 10° NW 01:58:18 86° NE 02:02:16 10° SE
Cosmos 1455 Rocket 3.8 01:56:11 10° NNW 02:00:20 38° W 02:03:14 17° SSW
Cosmos 614 Rocket 4.0 01:55:30 10° NNW 02:00:43 85° ENE 02:05:57 10° SSE
Cosmos 2228 4.1 01:56:42 10° N 02:00:55 44° ENE 02:05:06 10° SSE
CZ-4 R/B 3.8 01:56:17 10° NNE 02:00:59 87° WNW 02:04:41 16° SSW
EO 1 Del DPAF 4.3 01:58:46 10° NNE 02:02:01 34° E 02:05:15 10° SSE
SL-16 R/B 2.5 01:58:00 15° S 02:02:36 61° ESE 02:08:13 10° NE
Cosmos 2251 Rocket 4.1 01:57:27 10° NNW 02:02:41 60° ENE 02:07:53 10° SE
Cosmos 1656 Rocket 4.3 02:01:00 10° NNW 02:06:21 57° NE 02:11:41 10° SE
Cosmos 1980 4.2 02:02:27 13° SW 02:07:18 52° NW 02:12:51 10° NNE
Meteor 1-28 Rocket 3.2 02:03:59 10° SSE 02:07:43 82° ENE 02:11:28 10° NNW
Cosmos 2333 Rocket 4.3 02:04:55 10° W 02:09:08 21° NNW 02:13:23 10° NNE
CZ-4C R/B 4.4 02:04:44 10° WNW 02:09:20 17° WSW 02:12:59 13° SW
USA 215 3.9 02:03:30 10° ENE 02:09:55 59° N 02:16:20 10° W
COSMOS 2455 3.7 02:04:48 11° S 02:10:07 41° ESE 02:15:43 10° NE
NOSS 3 (A) 3.1 02:10:22 39° WSW 02:10:48 70° NW 02:12:39 10° NE
Cosmos 332 Rocket 4.2 02:07:03 15° SW 02:10:50 54° WNW 02:15:34 10° NNE
Cosmos 1536 Rocket 3.9 02:08:03 11° S 02:12:12 64° E 02:16:34 10° NNE
Cosmos 1975 Rocket 4.0 02:16:47 14° SW 02:20:06 37° WNW 02:24:17 10° N
Nadezhda 1 Rocket 4.2 02:15:25 10° S 02:21:45 78° E 02:28:03 10° NNE
MSX 4.4 02:16:06 10° NNE 02:21:47 55° E 02:27:26 10° S
Meteor 1-24 Rocket 3.8 02:17:03 14° SSW 02:21:53 63° WNW 02:27:18 10° N
UNK 4.0 02:19:09 11° S 02:23:28 49° W 02:27:58 10° NNW
Cosmos 1455 2.5 02:20:40 10° NNW 02:24:13 45° W 02:27:22 12° SSW
USA 308 2.8 02:20:31 11° WSW 02:24:36 83° SSE 02:28:49 10° ENE
Cosmos 1025 Rocket 3.9 02:23:55 14° SW 02:27:17 37° WNW 02:31:19 10° N
MOS 1 Rocket 3.3 02:23:22 10° S 02:27:30 50° W 02:31:44 10° NNW
Cosmos 1271 Rocket 2.6 02:24:16 10° NNW 02:28:04 73° W 02:31:55 10° S
Cosmos 1606 Rocket 4.1 02:27:45 10° N 02:32:10 61° ENE 02:36:30 10° SSE
Cosmos 2219 Rocket 4.3 02:28:19 10° WNW 02:32:13 19° NNW 02:36:08 10° NNE
CZ-2D R/B 2.6 02:33:33 10° N 02:38:44 49° WNW 02:43:47 10° SW
Lacrosse 5 2.0 02:37:42 11° SW 02:42:36 70° SE 02:47:41 10° ENE
Helios 1B rocket 4.1 02:39:17 10° NNE 02:42:55 31° E 02:46:31 10° SSE
Meteor 2-5 Rocket 4.5 02:38:06 11° SW 02:43:19 40° WNW 02:48:39 10° N
Cosmos 2341 Rocket 4.2 02:38:26 10° N 02:44:52 80° E 02:51:16 10° SSE
USA 305 3.0 02:43:52 10° W 02:48:03 78° NNW 02:52:15 10° ENE
Cosmos 2154 Rocket 4.3 02:42:06 10° NNW 02:48:15 53° W 02:54:21 10° SSW
Meteor 2-1 Rocket 4.4 02:43:37 10° NNW 02:49:28 86° ENE 02:55:08 10° SSE
Cosmos 407 Rocket 3.7 02:45:17 10° NNW 02:50:40 82° ENE 02:55:58 10° SSE
SL-8 Rocket 4.3 02:45:14 10° N 02:51:37 76° E 02:57:56 10° SSE
SAR-Lupe-2 4.4 02:51:33 10° N 02:54:54 37° WNW 02:58:13 10° SW
AQUA 4.4 02:51:12 10° N 02:55:45 46° WNW 03:00:18 10° SW
Cosmos 1943 4.0 02:52:16 10° S 02:57:42 47° ESE 03:03:08 10° NE
Cosmos 1328 4.4 02:53:59 10° S 02:57:51 56° E 03:01:47 10° NNE
Helios 1A 3.7 02:54:21 10° SSW 02:58:13 35° W 03:02:08 10° NNW
Genesis I 3.2 02:54:10 10° NW 02:58:16 83° SW 03:02:17 10° SE
Cosmos 2237 Rocket 3.6 02:54:46 10° WSW 02:59:43 29° NW 03:04:42 10° NNE
Lacrosse 5 rocket 1.4 02:57:36 10° SW 03:01:28 64° SE 03:05:36 10° ENE
Cosmos 1140 Rocket 3.5 02:56:20 10° NNW 03:01:38 81° WSW 03:06:52 10° SSE
ATLAS 2AS CENTAUR R/B 4.4 02:57:12 10° NW 03:04:05 39° NNE 03:10:33 10° E
SL-16 R/B 3.6 03:00:42 10° SSW 03:05:52 27° W 03:11:06 10° NW
Resurs 1-4 Rocket 3.3 03:02:57 10° N 03:07:28 30° WNW 03:12:00 10° WSW
NOSS 3-4 (A) 4.4 03:02:16 10° NW 03:08:56 66° NE 03:16:31 10° ESE
NOSS 3-4 (C) 4.4 03:02:20 10° NW 03:09:00 66° NE 03:16:33 10° ESE
Lacrosse 4 Rocket 4.2 03:08:34 10° SE 03:10:06 12° ESE 03:11:36 10° E
